CDT,Max TemperatureF,Mean TemperatureF,Min TemperatureF,Max Dew PointF,MeanDew PointF,Min DewpointF,Max Humidity, Mean Humidity, Min Humidity, Max Sea Level PressureIn, Mean Sea Level PressureIn, Min Sea Level PressureIn, Max VisibilityMiles, Mean VisibilityMiles, Min VisibilityMiles, Max Wind SpeedMPH, Mean Wind SpeedMPH, Max Gust SpeedMPH,PrecipitationIn, CloudCover, Events, WindDirDegrees
2013-7-1,79,71,62,60,58,56,90,69,48,29.99,29.96,29.90,10,10,10,18,7,28,0.00,2,Thunderstorm,352
2013-7-2,76,65,54,56,54,53,93,70,46,30.09,30.03,29.97,10,10,10,16,4,24,0.00,1,,346
2013-7-3,82,68,53,59,54,51,93,66,39,30.12,30.07,30.03,10,10,10,10,2,14,0.00,1,,242
2013-7-4,83,69,55,60,56,53,93,67,40,30.09,30.05,30.00,10,10,10,12,2,15,0.00,0,,66
2013-7-5,86,71,56,67,60,54,100,69,37,30.11,30.04,29.99,10,9,4,14,3,18,0.00,1,Thunderstorm,132
2013-7-6,86,73,60,68,63,58,97,67,37,30.07,30.03,29.98,10,8,0,12,3,14,0.00,1,Fog,113
2013-7-7,90,76,61,67,63,56,93,63,32,30.07,30.04,30.01,10,10,6,13,4,17,0.00,0,,174
2013-7-8,92,80,67,71,66,61,93,66,38,30.12,30.08,30.04,10,10,10,13,3,,0.00,1,,191
2013-7-9,94,84,74,71,68,64,87,63,39,30.09,30.03,29.96,10,10,10,13,6,18,0.00,1,,213
2013-7-10,93,84,75,71,69,67,82,62,41,30.02,29.97,29.91,10,10,10,10,4,13,0.00,1,,240
2013-7-11,89,77,64,72,65,55,93,63,32,30.04,30.00,29.97,10,10,8,14,7,18,0.00,0,,34
2013-7-12,87,72,57,59,55,50,90,60,29,30.10,30.06,30.01,10,10,10,12,5,20,0.00,0,,61
2013-7-13,88,71,54,64,56,51,93,63,32,30.09,30.04,30.00,10,10,10,14,2,21,0.00,0,,65
2013-7-14,89,75,60,63,60,51,90,60,29,30.11,30.06,30.01,10,10,10,18,5,25,0.00,1,Thunderstorm,99
2013-7-15,85,75,65,73,69,63,100,78,55,30.23,30.17,30.10,10,9,2,14,5,18,0.13,5,Rain-Thunderstorm,99
2013-7-16,90,80,69,73,70,66,100,74,47,30.33,30.27,30.20,10,8,0,15,5,21,0.00,3,Fog,112
2013-7-17,93,80,67,70,67,63,100,69,38,30.33,30.27,30.20,10,9,6,14,3,17,0.00,0,,79
2013-7-18,91,78,69,72,68,64,93,78,41,30.22,30.19,30.14,10,10,10,5,0,,0.00,0,,-1
2013-7-19,93,82,72,70,68,65,91,69,44,29.98,29.95,29.94,10,10,10,17,5,22,0.00,0,Thunderstorm,323
2013-7-20,94,81,68,70,68,61,97,72,47,29.96,29.93,29.89,10,8,1,18,4,26,0.23,3,Rain-Thunderstorm,253
2013-7-21,84,77,70,72,70,66,100,83,65,29.96,29.93,29.86,10,6,1,22,4,30,2.03,6,Rain-Thunderstorm,155
2013-7-22,89,80,70,72,69,65,93,70,46,29.93,29.89,29.84,10,8,1,14,4,21,0.43,5,Rain-Thunderstorm,220
2013-7-23,89,78,67,75,68,63,93,76,59,29.98,29.89,29.83,10,8,1,29,6,41,1.03,3,Rain-Thunderstorm,209
2013-7-24,83,74,64,68,66,60,100,79,58,30.03,29.96,29.88,10,10,8,13,4,16,0.00,4,,37
2013-7-25,80,69,57,62,59,55,93,69,45,30.12,30.08,30.04,10,10,10,13,2,16,0.00,0,,49
2013-7-26,75,70,64,67,65,61,100,87,73,30.11,30.05,29.99,10,8,2,10,3,13,0.20,5,Rain,207
2013-7-27,79,69,58,66,63,56,100,75,50,30.05,30.01,29.96,10,9,4,13,5,17,0.00,4,,314
2013-7-28,73,65,57,62,57,53,93,73,53,30.08,30.05,30.00,10,10,10,8,3,12,0.00,3,,175
2013-7-29,79,72,64,67,63,59,87,77,67,30.15,30.10,30.07,10,10,10,12,6,16,T,1,,113
2013-7-30,81,74,67,73,69,63,100,85,69,30.14,30.07,30.00,10,7,0,17,5,26,1.98,7,Fog-Rain-Thunderstorm,175
2013-7-31,88,79,69,74,72,67,100,79,57,30.07,30.03,29.97,10,6,0,15,5,20,0.09,5,Fog-Rain,312